Time,TemperatureF,DewpointF,PressureIn,WindDirection,WindDirectionDegrees,WindSpeedMPH,WindSpeedGustMPH,Humidity,HourlyPrecipIn,Conditions,Clouds,dailyrainin,SoftwareType,DateUTC
2013-07-26 00:04:00,70.3,-35.0,30.01,NE,39,0.0,4.0,1,0.00,,,0.00,Wunderground v.1.15,2013-07-26 05:04:00,
2013-07-26 00:09:00,70.4,-35.0,30.00,North,352,0.0,4.0,1,0.00,,,0.00,Wunderground v.1.15,2013-07-26 05:09:00,
2013-07-26 00:14:00,70.7,-34.8,30.00,NNW,345,0.0,4.0,1,0.00,,,0.00,Wunderground v.1.15,2013-07-26 05:14:00,
2013-07-26 00:24:00,71.2,-34.5,30.00,NE,38,0.0,4.0,1,0.00,,,0.00,Wunderground v.1.15,2013-07-26 05:24:00,
2013-07-26 00:29:00,71.4,-34.4,29.99,NE,43,0.0,4.0,1,0.00,,,0.00,Wunderground v.1.15,2013-07-26 05:29:00,
2013-07-26 00:34:00,71.6,-34.2,29.99,ESE,108,0.0,4.0,1,0.00,,,0.00,Wunderground v.1.15,2013-07-26 05:34:00,
2013-07-26 00:39:00,71.6,-34.2,30.00,ESE,107,0.0,4.0,1,0.00,,,0.00,Wunderground v.1.15,2013-07-26 05:39:00,
2013-07-26 00:44:00,71.7,-34.2,30.00,East,96,0.0,4.0,1,0.00,,,0.00,Wunderground v.1.15,2013-07-26 05:44:00,
2013-07-26 00:49:00,71.6,-34.2,30.00,East,96,0.0,4.0,1,0.00,,,0.00,Wunderground v.1.15,2013-07-26 05:49:00,
2013-07-26 00:55:00,71.4,-34.4,30.01,East,96,0.0,4.0,1,0.00,,,0.00,Wunderground v.1.15,2013-07-26 05:55:00,
2013-07-26 00:59:00,71.4,-34.4,30.01,East,96,0.0,4.0,1,0.00,,,0.00,Wunderground v.1.15,2013-07-26 05:59:00,
2013-07-26 01:04:00,71.4,-34.4,30.01,East,96,0.0,4.0,1,0.00,,,0.00,Wunderground v.1.15,2013-07-26 06:04:00,
2013-07-26 01:09:00,71.1,-34.5,30.00,East,96,0.0,4.0,1,0.00,,,0.00,Wunderground v.1.15,2013-07-26 06:09:00,
2013-07-26 01:14:00,70.9,-34.7,30.00,East,96,0.0,4.0,1,0.00,,,0.00,Wunderground v.1.15,2013-07-26 06:14:00,
2013-07-26 01:19:00,70.7,-34.8,30.00,East,96,0.0,4.0,1,0.00,,,0.00,Wunderground v.1.15,2013-07-26 06:19:00,
2013-07-26 01:29:00,70.5,-34.9,29.99,East,96,0.0,4.0,1,0.00,,,0.00,Wunderground v.1.15,2013-07-26 06:29:00,
2013-07-26 01:34:00,70.3,-35.0,29.99,East,96,0.0,4.0,1,0.00,,,0.00,Wunderground v.1.15,2013-07-26 06:34:00,
2013-07-26 01:39:00,70.2,-35.1,29.99,East,96,0.0,4.0,1,0.00,,,0.00,Wunderground v.1.15,2013-07-26 06:39:00,
2013-07-26 01:44:00,70.2,-35.1,29.99,East,96,0.0,4.0,1,0.00,,,0.00,Wunderground v.1.15,2013-07-26 06:44:00,
2013-07-26 01:49:00,70.1,-35.2,29.99,East,96,0.0,4.0,1,0.00,,,0.00,Wunderground v.1.15,2013-07-26 06:49:00,
2013-07-26 01:55:00,70.0,-35.2,29.99,East,96,0.0,4.0,1,0.00,,,0.00,Wunderground v.1.15,2013-07-26 06:55:00,
2013-07-26 01:59:00,70.1,-35.2,29.98,East,96,0.0,4.0,1,0.00,,,0.00,Wunderground v.1.15,2013-07-26 06:59:00,
2013-07-26 02:04:00,70.2,-35.1,29.98,East,96,0.0,4.0,1,0.00,,,0.00,Wunderground v.1.15,2013-07-26 07:04:00,
2013-07-26 02:09:00,70.2,-35.1,29.98,East,96,0.0,4.0,1,0.00,,,0.00,Wunderground v.1.15,2013-07-26 07:09:00,
2013-07-26 02:14:00,70.1,-35.2,29.98,East,96,0.0,4.0,1,0.00,,,0.00,Wunderground v.1.15,2013-07-26 07:14:00,
2013-07-26 02:19:00,69.9,-35.3,29.98,East,96,0.0,4.0,1,0.00,,,0.00,Wunderground v.1.15,2013-07-26 07:19:00,
2013-07-26 02:29:00,70.0,-35.2,29.98,ESE,105,0.0,4.0,1,0.00,,,0.00,Wunderground v.1.15,2013-07-26 07:29:00,
2013-07-26 02:34:00,70.4,-35.0,29.98,ESE,120,0.0,4.0,1,0.00,,,0.00,Wunderground v.1.15,2013-07-26 07:34:00,
2013-07-26 02:39:00,70.8,-34.7,29.98,East,87,0.0,4.0,1,0.00,,,0.00,Wunderground v.1.15,2013-07-26 07:39:00,
2013-07-26 02:44:00,71.1,-34.5,29.97,ESE,105,0.0,4.0,1,0.00,,,0.00,Wunderground v.1.15,2013-07-26 07:44:00,
2013-07-26 02:49:00,71.4,-34.4,29.97,East,87,0.0,4.0,1,0.00,,,0.00,Wunderground v.1.15,2013-07-26 07:49:00,
2013-07-26 02:54:00,71.6,-34.2,29.97,East,92,1.0,4.0,1,0.00,,,0.00,Wunderground v.1.15,2013-07-26 07:54:00,
2013-07-26 02:59:00,71.9,-34.1,29.97,ENE,78,1.0,4.0,1,0.00,,,0.00,Wunderground v.1.15,2013-07-26 07:59:00,
2013-07-26 03:04:00,71.9,-34.1,29.97,East,96,0.0,4.0,1,0.00,,,0.00,Wunderground v.1.15,2013-07-26 08:04:00,
2013-07-26 03:09:00,72.0,-34.0,29.97,ESE,109,0.0,4.0,1,0.00,,,0.00,Wunderground v.1.15,2013-07-26 08:09:00,
2013-07-26 03:14:00,72.1,-33.9,29.97,SE,139,0.0,4.0,1,0.00,,,0.00,Wunderground v.1.15,2013-07-26 08:14:00,
2013-07-26 03:19:00,72.0,-34.0,29.97,SE,139,0.0,4.0,1,0.00,,,0.00,Wunderground v.1.15,2013-07-26 08:19:00,
2013-07-26 03:24:00,71.8,-34.1,29.97,SE,127,0.0,4.0,1,0.00,,,0.00,Wunderground v.1.15,2013-07-26 08:24:00,
2013-07-26 03:34:00,71.7,-34.2,29.97,SE,129,0.0,4.0,1,0.00,,,0.00,Wunderground v.1.15,2013-07-26 08:34:00,
2013-07-26 03:39:00,71.5,-34.3,29.97,ESE,115,0.0,4.0,1,0.00,,,0.00,Wunderground v.1.15,2013-07-26 08:39:00,
2013-07-26 03:44:00,71.2,-34.5,29.97,East,79,0.0,4.0,1,0.00,,,0.00,Wunderground v.1.15,2013-07-26 08:44:00,
2013-07-26 03:49:00,71.1,-34.5,29.97,East,79,0.0,4.0,1,0.00,,,0.00,Wunderground v.1.15,2013-07-26 08:49:00,
2013-07-26 03:54:00,71.0,-34.6,29.97,East,79,0.0,4.0,1,0.00,,,0.00,Wunderground v.1.15,2013-07-26 08:54:00,
2013-07-26 03:59:00,70.8,-34.7,29.97,East,79,0.0,4.0,1,0.00,,,0.00,Wunderground v.1.15,2013-07-26 08:59:00,
2013-07-26 04:04:00,70.5,-34.9,29.97,East,79,0.0,4.0,1,0.00,,,0.00,Wunderground v.1.15,2013-07-26 09:04:00,
2013-07-26 04:09:00,70.3,-35.0,29.97,East,79,0.0,4.0,1,0.00,,,0.00,Wunderground v.1.15,2013-07-26 09:09:00,
2013-07-26 04:14:00,70.3,-35.0,29.97,East,79,0.0,4.0,1,0.00,,,0.00,Wunderground v.1.15,2013-07-26 09:14:00,
2013-07-26 04:19:00,70.2,-35.1,29.97,East,79,0.0,4.0,1,0.00,,,0.00,Wunderground v.1.15,2013-07-26 09:19:00,
2013-07-26 04:24:00,70.1,-35.2,29.97,East,79,0.0,4.0,1,0.00,,,0.00,Wunderground v.1.15,2013-07-26 09:24:00,
2013-07-26 04:34:00,69.9,-35.3,29.98,East,79,0.0,4.0,1,0.00,,,0.00,Wunderground v.1.15,2013-07-26 09:34:00,
2013-07-26 04:39:00,69.8,-35.3,29.97,East,79,0.0,4.0,1,0.00,,,0.00,Wunderground v.1.15,2013-07-26 09:39:00,
2013-07-26 04:44:00,69.9,-35.3,29.97,East,79,0.0,4.0,1,0.00,,,0.00,Wunderground v.1.15,2013-07-26 09:44:00,
2013-07-26 04:49:00,69.9,-35.3,29.97,East,79,0.0,4.0,1,0.00,,,0.00,Wunderground v.1.15,2013-07-26 09:49:00,
2013-07-26 04:54:00,70.0,-35.2,29.97,East,79,0.0,4.0,1,0.00,,,0.00,Wunderground v.1.15,2013-07-26 09:54:00,
2013-07-26 04:59:00,70.0,-35.2,29.97,East,92,0.0,4.0,1,0.00,,,0.00,Wunderground v.1.15,2013-07-26 09:59:00,
2013-07-26 05:04:00,70.1,-35.2,29.97,East,91,0.0,4.0,1,0.00,,,0.00,Wunderground v.1.15,2013-07-26 10:04:00,
2013-07-26 05:09:00,70.1,-35.2,29.97,East,91,0.0,4.0,1,0.00,,,0.00,Wunderground v.1.15,2013-07-26 10:09:00,
2013-07-26 05:14:00,70.0,-35.2,29.97,East,91,0.0,4.0,1,0.00,,,0.00,Wunderground v.1.15,2013-07-26 10:14:00,
2013-07-26 05:19:00,69.9,-35.3,29.97,ESE,117,0.0,4.0,1,0.00,,,0.00,Wunderground v.1.15,2013-07-26 10:19:00,
2013-07-26 05:24:00,70.0,-35.2,29.97,ESE,115,0.0,4.0,1,0.00,,,0.00,Wunderground v.1.15,2013-07-26 10:24:00,
2013-07-26 05:29:00,70.1,-35.2,29.97,ESE,114,0.0,4.0,1,0.00,,,0.00,Wunderground v.1.15,2013-07-26 10:29:00,
2013-07-26 05:39:00,70.4,-35.0,29.97,SE,132,0.0,4.0,1,0.00,,,0.00,Wunderground v.1.15,2013-07-26 10:39:00,
2013-07-26 05:44:00,70.7,-34.8,29.97,SSE,150,0.0,4.0,1,0.00,,,0.00,Wunderground v.1.15,2013-07-26 10:44:00,
2013-07-26 05:49:00,70.9,-34.7,29.97,SE,124,0.0,4.0,1,0.00,,,0.00,Wunderground v.1.15,2013-07-26 10:49:00,
2013-07-26 05:54:00,70.9,-34.7,29.97,ESE,105,0.0,4.0,1,0.00,,,0.00,Wunderground v.1.15,2013-07-26 10:54:00,
2013-07-26 05:59:00,71.1,-34.5,29.97,East,98,0.0,4.0,1,0.00,,,0.00,Wunderground v.1.15,2013-07-26 10:59:00,
2013-07-26 06:04:00,71.2,-34.5,29.97,East,101,0.0,4.0,1,0.00,,,0.00,Wunderground v.1.15,2013-07-26 11:04:00,
2013-07-26 06:09:00,71.4,-34.4,29.97,ESE,115,0.0,4.0,1,0.00,,,0.00,Wunderground v.1.15,2013-07-26 11:09:00,
2013-07-26 06:14:00,71.5,-34.3,29.97,ESE,115,0.0,4.0,1,0.00,,,0.00,Wunderground v.1.15,2013-07-26 11:14:00,
2013-07-26 06:19:00,71.6,-34.2,29.97,SE,131,0.0,4.0,1,0.00,,,0.00,Wunderground v.1.15,2013-07-26 11:19:00,
2013-07-26 06:24:00,71.6,-34.2,29.97,ESE,111,0.0,4.0,1,0.00,,,0.00,Wunderground v.1.15,2013-07-26 11:24:00,
2013-07-26 06:29:00,71.5,-34.3,29.97,ESE,116,0.0,4.0,1,0.00,,,0.00,Wunderground v.1.15,2013-07-26 11:29:00,
2013-07-26 06:39:00,71.5,-34.3,29.97,East,101,0.0,4.0,1,0.00,,,0.00,Wunderground v.1.15,2013-07-26 11:39:00,
2013-07-26 06:44:00,71.6,-34.2,29.97,ESE,107,0.0,4.0,1,0.00,,,0.00,Wunderground v.1.15,2013-07-26 11:44:00,
2013-07-26 06:49:00,71.7,-34.2,29.97,East,101,0.0,4.0,1,0.00,,,0.00,Wunderground v.1.15,2013-07-26 11:49:00,
2013-07-26 06:54:00,71.8,-34.1,29.97,ESE,112,0.0,4.0,1,0.00,,,0.00,Wunderground v.1.15,2013-07-26 11:54:00,
2013-07-26 06:59:00,71.9,-34.1,29.97,ESE,120,0.0,4.0,1,0.00,,,0.00,Wunderground v.1.15,2013-07-26 11:59:00,
2013-07-26 07:05:00,71.9,-34.1,29.97,SE,125,0.0,4.0,1,0.00,,,0.00,Wunderground v.1.15,2013-07-26 12:05:00,
2013-07-26 07:10:00,72.1,-33.9,29.96,East,98,0.0,4.0,1,0.00,,,0.00,Wunderground v.1.15,2013-07-26 12:10:00,
2013-07-26 07:14:00,72.1,-33.9,29.97,North,8,0.0,4.0,1,0.00,,,0.00,Wunderground v.1.15,2013-07-26 12:14:00,
2013-07-26 07:19:00,72.2,-33.9,29.96,ENE,68,0.0,4.0,1,0.00,,,0.00,Wunderground v.1.15,2013-07-26 12:19:00,
2013-07-26 07:24:00,72.2,-33.9,29.96,NE,44,0.0,4.0,1,0.00,,,0.00,Wunderground v.1.15,2013-07-26 12:24:00,
2013-07-26 07:29:00,72.2,-33.9,29.96,NE,44,0.0,4.0,1,0.00,,,0.00,Wunderground v.1.15,2013-07-26 12:29:00,
2013-07-26 07:34:00,72.1,-33.9,29.96,ENE,75,0.0,4.0,1,0.00,,,0.00,Wunderground v.1.15,2013-07-26 12:34:00,
2013-07-26 07:44:00,72.3,-33.8,29.96,NE,43,0.0,4.0,1,0.00,,,0.00,Wunderground v.1.15,2013-07-26 12:44:00,
2013-07-26 07:49:00,72.3,-33.8,29.96,ENE,63,0.0,4.0,1,0.00,,,0.00,Wunderground v.1.15,2013-07-26 12:49:00,
2013-07-26 07:54:00,72.2,-33.9,29.96,East,101,0.0,4.0,1,0.00,,,0.00,Wunderground v.1.15,2013-07-26 12:54:00,
2013-07-26 07:59:00,72.3,-33.8,29.97,East,101,0.0,4.0,1,0.00,,,0.00,Wunderground v.1.15,2013-07-26 12:59:00,
2013-07-26 08:04:00,72.2,-33.9,29.97,East,100,0.0,4.0,1,0.00,,,0.00,Wunderground v.1.15,2013-07-26 13:04:00,
2013-07-26 08:10:00,72.2,-33.9,29.97,East,101,0.0,4.0,1,0.00,,,0.00,Wunderground v.1.15,2013-07-26 13:10:00,
2013-07-26 08:14:00,72.3,-33.8,29.98,East,100,0.0,4.0,1,0.00,,,0.00,Wunderground v.1.15,2013-07-26 13:14:00,
2013-07-26 08:19:00,72.1,-33.9,29.98,East,100,0.0,4.0,1,0.00,,,0.00,Wunderground v.1.15,2013-07-26 13:19:00,
2013-07-26 08:24:00,71.9,-34.1,29.98,East,100,0.0,4.0,1,0.00,,,0.00,Wunderground v.1.15,2013-07-26 13:24:00,
2013-07-26 08:29:00,72.0,-34.0,29.98,East,100,0.0,4.0,1,0.00,,,0.00,Wunderground v.1.15,2013-07-26 13:29:00,
2013-07-26 08:34:00,71.9,-34.1,29.98,East,101,0.0,4.0,1,0.00,,,0.00,Wunderground v.1.15,2013-07-26 13:34:00,
2013-07-26 08:44:00,71.8,-34.1,29.98,East,101,0.0,4.0,1,0.00,,,0.00,Wunderground v.1.15,2013-07-26 13:44:00,
2013-07-26 08:49:00,71.6,-34.2,29.99,SW,233,0.0,4.0,1,0.00,,,0.00,Wunderground v.1.15,2013-07-26 13:49:00,
2013-07-26 08:54:00,71.3,-34.4,30.00,SW,225,1.0,4.0,1,0.00,,,0.00,Wunderground v.1.15,2013-07-26 13:54:00,
2013-07-26 08:59:00,71.2,-34.5,30.00,East,90,1.0,1.0,1,0.00,,,0.00,Wunderground v.1.15,2013-07-26 13:59:00,
2013-07-26 09:04:00,71.2,-34.5,30.00,WSW,243,0.0,2.0,1,0.00,,,0.00,Wunderground v.1.15,2013-07-26 14:04:00,
2013-07-26 09:09:00,71.2,-34.5,30.00,East,100,1.0,1.0,1,0.00,,,0.00,Wunderground v.1.15,2013-07-26 14:09:00,
2013-07-26 09:14:00,70.9,-34.7,30.00,SE,142,1.0,4.0,1,0.00,,,0.01,Wunderground v.1.15,2013-07-26 14:14:00,
2013-07-26 09:19:00,70.8,-34.7,30.00,SW,228,0.0,4.0,1,0.11,,,0.02,Wunderground v.1.15,2013-07-26 14:19:00,
2013-07-26 09:24:00,70.6,-34.9,30.00,WSW,256,0.0,4.0,1,0.14,,,0.03,Wunderground v.1.15,2013-07-26 14:24:00,
2013-07-26 09:34:00,70.4,-35.0,30.01,West,275,0.0,4.0,1,0.22,,,0.06,Wunderground v.1.15,2013-07-26 14:34:00,
2013-07-26 09:39:00,70.3,-35.0,30.01,WSW,243,0.0,4.0,1,0.21,,,0.07,Wunderground v.1.15,2013-07-26 14:39:00,
2013-07-26 09:49:00,70.1,-35.2,30.01,SW,229,0.0,4.0,1,0.35,,,0.10,Wunderground v.1.15,2013-07-26 14:49:00,
2013-07-26 09:54:00,69.9,-35.3,30.01,SW,228,0.0,4.0,1,0.27,,,0.12,Wunderground v.1.15,2013-07-26 14:54:00,
2013-07-26 09:59:00,69.8,-35.3,30.01,SW,226,0.0,4.0,1,0.23,,,0.14,Wunderground v.1.15,2013-07-26 14:59:00,
2013-07-26 10:04:00,69.8,-35.3,30.01,SW,214,0.0,4.0,1,0.22,,,0.16,Wunderground v.1.15,2013-07-26 15:04:00,
2013-07-26 10:09:00,69.8,-35.3,30.02,SSW,200,0.0,4.0,1,0.16,,,0.18,Wunderground v.1.15,2013-07-26 15:09:00,
2013-07-26 10:14:00,69.8,-35.3,30.02,SSE,150,0.0,4.0,1,0.13,,,0.19,Wunderground v.1.15,2013-07-26 15:14:00,
2013-07-26 10:19:00,69.8,-35.3,30.02,SSE,152,0.0,4.0,1,0.20,,,0.21,Wunderground v.1.15,2013-07-26 15:19:00,
2013-07-26 10:24:00,69.9,-35.3,30.02,SSE,150,0.0,4.0,1,0.18,,,0.22,Wunderground v.1.15,2013-07-26 15:24:00,
2013-07-26 10:29:00,69.9,-35.3,30.03,SSE,150,0.0,4.0,1,0.22,,,0.24,Wunderground v.1.15,2013-07-26 15:29:00,
2013-07-26 10:34:00,70.0,-35.2,30.03,SE,125,0.0,4.0,1,0.18,,,0.25,Wunderground v.1.15,2013-07-26 15:34:00,
2013-07-26 10:39:00,70.1,-35.2,30.03,East,94,0.0,4.0,1,0.16,,,0.27,Wunderground v.1.15,2013-07-26 15:39:00,
2013-07-26 10:49:00,70.0,-35.2,30.03,ESE,113,0.0,4.0,1,0.45,,,0.33,Wunderground v.1.15,2013-07-26 15:49:00,
2013-07-26 10:54:00,70.1,-35.2,30.03,ESE,105,0.0,4.0,1,0.19,,,0.34,Wunderground v.1.15,2013-07-26 15:54:00,
2013-07-26 10:59:00,70.0,-35.2,30.02,ESE,104,0.0,4.0,1,0.16,,,0.35,Wunderground v.1.15,2013-07-26 15:59:00,
2013-07-26 11:04:00,69.9,-35.3,30.02,ESE,105,0.0,4.0,1,0.09,,,0.36,Wunderground v.1.15,2013-07-26 16:04:00,
2013-07-26 11:09:00,69.9,-35.3,30.02,ESE,104,0.0,4.0,1,0.09,,,0.36,Wunderground v.1.15,2013-07-26 16:09:00,
2013-07-26 11:14:00,69.9,-35.3,30.03,East,101,0.0,4.0,1,0.05,,,0.36,Wunderground v.1.15,2013-07-26 16:14:00,
2013-07-26 11:19:00,69.9,-35.3,30.03,SE,141,0.0,4.0,1,0.04,,,0.37,Wunderground v.1.15,2013-07-26 16:19:00,
2013-07-26 11:24:00,69.8,-35.3,30.02,SW,228,0.0,4.0,1,0.11,,,0.38,Wunderground v.1.15,2013-07-26 16:24:00,
2013-07-26 11:29:00,69.7,-35.4,30.02,SW,221,0.0,4.0,1,0.17,,,0.39,Wunderground v.1.15,2013-07-26 16:29:00,
2013-07-26 11:34:00,69.7,-35.4,30.02,SSE,163,0.0,4.0,1,0.15,,,0.41,Wunderground v.1.15,2013-07-26 16:34:00,
2013-07-26 11:39:00,69.9,-35.3,30.02,East,95,0.0,4.0,1,0.11,,,0.41,Wunderground v.1.15,2013-07-26 16:39:00,
2013-07-26 11:44:00,69.9,-35.3,30.02,ESE,121,0.0,4.0,1,0.09,,,0.42,Wunderground v.1.15,2013-07-26 16:44:00,
2013-07-26 11:54:00,70.0,-35.2,30.02,ESE,107,0.0,4.0,1,0.07,,,0.43,Wunderground v.1.15,2013-07-26 16:54:00,
2013-07-26 11:59:00,70.0,-35.2,30.02,ESE,107,0.0,4.0,1,0.08,,,0.44,Wunderground v.1.15,2013-07-26 16:59:00,
2013-07-26 12:04:00,70.0,-35.2,30.02,ESE,107,0.0,4.0,1,0.09,,,0.45,Wunderground v.1.15,2013-07-26 17:04:00,
2013-07-26 12:09:00,70.1,-35.2,30.02,ESE,107,0.0,4.0,1,0.15,,,0.46,Wunderground v.1.15,2013-07-26 17:09:00,
2013-07-26 12:14:00,70.2,-35.1,30.02,ESE,121,0.0,4.0,1,0.12,,,0.47,Wunderground v.1.15,2013-07-26 17:14:00,
2013-07-26 12:20:00,70.3,-35.0,30.02,ESE,120,0.0,4.0,1,0.09,,,0.48,Wunderground v.1.15,2013-07-26 17:20:00,
2013-07-26 12:25:00,70.2,-35.1,30.02,ESE,118,0.0,4.0,1,0.09,,,0.48,Wunderground v.1.15,2013-07-26 17:25:00,
2013-07-26 12:29:00,70.3,-35.0,30.02,ESE,114,0.0,4.0,1,0.07,,,0.49,Wunderground v.1.15,2013-07-26 17:29:00,
2013-07-26 12:34:00,70.3,-35.0,30.02,ESE,113,0.0,4.0,1,0.08,,,0.50,Wunderground v.1.15,2013-07-26 17:34:00,
2013-07-26 12:39:00,70.5,-34.9,30.02,ESE,113,0.0,4.0,1,0.08,,,0.50,Wunderground v.1.15,2013-07-26 17:39:00,
2013-07-26 12:44:00,70.7,-34.8,30.01,NE,39,0.0,4.0,1,0.06,,,0.51,Wunderground v.1.15,2013-07-26 17:44:00,
2013-07-26 12:54:00,70.6,-34.9,30.01,NNE,25,0.0,4.0,1,0.06,,,0.52,Wunderground v.1.15,2013-07-26 17:54:00,
2013-07-26 12:59:00,70.4,-35.0,30.01,NNE,23,0.0,4.0,1,0.06,,,0.52,Wunderground v.1.15,2013-07-26 17:59:00,
2013-07-26 13:04:00,70.5,-34.9,30.01,NNE,23,0.0,4.0,1,0.11,,,0.53,Wunderground v.1.15,2013-07-26 18:04:00,
2013-07-26 13:09:00,70.4,-35.0,30.01,NNE,23,0.0,4.0,1,0.08,,,0.54,Wunderground v.1.15,2013-07-26 18:09:00,
2013-07-26 13:19:00,70.6,-34.9,30.01,NNE,18,0.0,4.0,1,0.07,,,0.55,Wunderground v.1.15,2013-07-26 18:19:00,
2013-07-26 13:25:00,70.5,-34.9,30.01,NNE,18,0.0,4.0,1,0.07,,,0.55,Wunderground v.1.15,2013-07-26 18:25:00,
2013-07-26 13:29:00,70.7,-34.8,30.00,NNE,22,0.0,4.0,1,0.05,,,0.56,Wunderground v.1.15,2013-07-26 18:29:00,
2013-07-26 13:34:00,71.0,-34.6,30.00,NNE,22,0.0,4.0,1,0.05,,,0.56,Wunderground v.1.15,2013-07-26 18:34:00,
2013-07-26 13:39:00,70.7,-34.8,30.00,NNE,18,0.0,4.0,1,0.05,,,0.56,Wunderground v.1.15,2013-07-26 18:39:00,
2013-07-26 13:44:00,70.9,-34.7,30.00,North,353,0.0,4.0,1,0.04,,,0.57,Wunderground v.1.15,2013-07-26 18:44:00,
2013-07-26 13:49:00,70.7,-34.8,30.00,NNW,336,0.0,4.0,1,0.04,,,0.57,Wunderground v.1.15,2013-07-26 18:49:00,
2013-07-26 13:59:00,70.8,-34.7,30.00,North,356,0.0,4.0,1,0.04,,,0.57,Wunderground v.1.15,2013-07-26 18:59:00,
2013-07-26 14:04:00,70.9,-34.7,30.00,North,4,0.0,4.0,1,0.00,,,0.58,Wunderground v.1.15,2013-07-26 19:04:00,
2013-07-26 14:09:00,71.2,-34.5,30.00,NNE,27,0.0,4.0,1,0.00,,,0.58,Wunderground v.1.15,2013-07-26 19:09:00,
2013-07-26 14:14:00,71.4,-34.4,30.00,NNE,27,0.0,4.0,1,0.00,,,0.58,Wunderground v.1.15,2013-07-26 19:14:00,
2013-07-26 14:19:00,71.9,-34.1,30.00,NNE,27,0.0,4.0,1,0.00,,,0.58,Wunderground v.1.15,2013-07-26 19:19:00,
2013-07-26 14:25:00,72.1,-33.9,30.00,SE,124,0.0,4.0,1,0.00,,,0.58,Wunderground v.1.15,2013-07-26 19:25:00,
2013-07-26 14:29:00,72.2,-33.9,30.00,East,87,0.0,4.0,1,0.00,,,0.58,Wunderground v.1.15,2013-07-26 19:29:00,
2013-07-26 14:34:00,72.6,-33.6,30.00,East,96,0.0,4.0,1,0.00,,,0.58,Wunderground v.1.15,2013-07-26 19:34:00,
2013-07-26 14:44:00,72.9,-33.5,30.00,ESE,117,0.0,4.0,1,0.00,,,0.58,Wunderground v.1.15,2013-07-26 19:44:00,
2013-07-26 14:49:00,73.5,-33.1,30.00,SE,132,0.0,4.0,1,0.00,,,0.58,Wunderground v.1.15,2013-07-26 19:49:00,
2013-07-26 14:59:00,74.2,-32.7,30.00,West,261,0.0,4.0,1,0.00,,,0.58,Wunderground v.1.15,2013-07-26 19:59:00,
2013-07-26 15:04:00,74.2,-32.7,30.00,SSE,148,0.0,4.0,1,0.00,,,0.58,Wunderground v.1.15,2013-07-26 20:04:00,
2013-07-26 15:09:00,74.2,-32.7,30.00,East,91,0.0,4.0,1,0.00,,,0.58,Wunderground v.1.15,2013-07-26 20:09:00,
2013-07-26 15:14:00,73.9,-32.9,30.00,ESE,108,0.0,4.0,1,0.00,,,0.58,Wunderground v.1.15,2013-07-26 20:14:00,
2013-07-26 15:19:00,73.9,-32.9,30.00,ESE,123,0.0,4.0,1,0.00,,,0.58,Wunderground v.1.15,2013-07-26 20:19:00,
2013-07-26 15:24:00,73.5,-33.1,30.00,NNE,18,0.0,4.0,1,0.00,,,0.58,Wunderground v.1.15,2013-07-26 20:24:00,
2013-07-26 15:29:00,73.8,-32.9,30.00,ESE,108,0.0,4.0,1,0.00,,,0.58,Wunderground v.1.15,2013-07-26 20:29:00,
2013-07-26 15:34:00,73.7,-33.0,30.00,East,94,0.0,4.0,1,0.00,,,0.58,Wunderground v.1.15,2013-07-26 20:34:00,
2013-07-26 15:39:00,73.7,-33.0,30.00,ESE,117,0.0,4.0,1,0.00,,,0.58,Wunderground v.1.15,2013-07-26 20:39:00,
2013-07-26 15:44:00,73.8,-32.9,30.00,ESE,117,0.0,4.0,1,0.00,,,0.58,Wunderground v.1.15,2013-07-26 20:44:00,
2013-07-26 15:49:00,73.9,-32.9,30.00,ESE,117,0.0,4.0,1,0.00,,,0.58,Wunderground v.1.15,2013-07-26 20:49:00,
2013-07-26 15:54:00,73.9,-32.9,30.00,ESE,111,0.0,4.0,1,0.00,,,0.58,Wunderground v.1.15,2013-07-26 20:54:00,
2013-07-26 16:04:00,73.9,-32.9,30.00,SE,127,0.0,4.0,1,0.00,,,0.59,Wunderground v.1.15,2013-07-26 21:04:00,
2013-07-26 16:09:00,73.9,-32.9,30.00,ENE,72,0.0,4.0,1,0.00,,,0.59,Wunderground v.1.15,2013-07-26 21:09:00,
2013-07-26 16:14:00,74.1,-32.7,30.00,NE,55,0.0,4.0,1,0.00,,,0.59,Wunderground v.1.15,2013-07-26 21:14:00,
2013-07-26 16:19:00,74.5,-32.5,29.99,ESE,103,0.0,4.0,1,0.00,,,0.59,Wunderground v.1.15,2013-07-26 21:19:00,
2013-07-26 16:24:00,74.2,-32.7,30.00,ESE,104,0.0,4.0,1,0.04,,,0.60,Wunderground v.1.15,2013-07-26 21:24:00,
2013-07-26 16:29:00,73.8,-32.9,29.99,ESE,112,0.0,4.0,1,0.04,,,0.60,Wunderground v.1.15,2013-07-26 21:29:00,
2013-07-26 16:34:00,73.7,-33.0,30.00,East,93,0.0,4.0,1,0.04,,,0.60,Wunderground v.1.15,2013-07-26 21:34:00,
2013-07-26 16:39:00,73.9,-32.9,30.00,ESE,104,0.0,4.0,1,0.00,,,0.60,Wunderground v.1.15,2013-07-26 21:39:00,
2013-07-26 16:44:00,73.7,-33.0,30.00,East,93,0.0,4.0,1,0.00,,,0.60,Wunderground v.1.15,2013-07-26 21:44:00,
2013-07-26 16:49:00,73.6,-33.0,30.00,ESE,118,0.0,4.0,1,0.00,,,0.60,Wunderground v.1.15,2013-07-26 21:49:00,
2013-07-26 16:54:00,73.5,-33.1,29.99,ESE,113,0.0,4.0,1,0.00,,,0.60,Wunderground v.1.15,2013-07-26 21:54:00,
2013-07-26 17:04:00,73.2,-33.3,29.99,East,97,0.0,4.0,1,0.00,,,0.60,Wunderground v.1.15,2013-07-26 22:04:00,
2013-07-26 17:09:00,73.1,-33.3,29.99,SSE,151,0.0,4.0,1,0.00,,,0.60,Wunderground v.1.15,2013-07-26 22:09:00,
2013-07-26 17:14:00,73.1,-33.3,30.00,East,96,0.0,4.0,1,0.16,,,0.62,Wunderground v.1.15,2013-07-26 22:14:00,
2013-07-26 17:19:00,72.9,-33.5,29.99,ESE,107,0.0,4.0,1,0.17,,,0.63,Wunderground v.1.15,2013-07-26 22:19:00,
2013-07-26 17:24:00,72.8,-33.5,29.99,ESE,110,0.0,4.0,1,0.16,,,0.64,Wunderground v.1.15,2013-07-26 22:24:00,
2013-07-26 17:29:00,73.0,-33.4,29.99,ESE,117,0.0,4.0,1,0.08,,,0.65,Wunderground v.1.15,2013-07-26 22:29:00,
2013-07-26 17:34:00,73.1,-33.3,29.99,ESE,120,0.0,4.0,1,0.08,,,0.65,Wunderground v.1.15,2013-07-26 22:34:00,
2013-07-26 17:44:00,73.4,-33.2,29.98,ESE,109,0.0,4.0,1,0.04,,,0.65,Wunderground v.1.15,2013-07-26 22:44:00,
2013-07-26 17:54:00,73.4,-33.2,29.98,ESE,110,1.0,4.0,1,0.00,,,0.65,Wunderground v.1.15,2013-07-26 22:54:00,
2013-07-26 18:04:00,73.3,-33.2,29.98,East,101,1.0,4.0,1,0.00,,,0.65,Wunderground v.1.15,2013-07-26 23:04:00,
2013-07-26 18:15:00,73.4,-33.2,29.98,East,101,1.0,4.0,1,0.00,,,0.65,Wunderground v.1.15,2013-07-26 23:15:00,
2013-07-26 18:24:00,73.8,-32.9,29.97,SE,130,1.0,4.0,1,0.00,,,0.65,Wunderground v.1.15,2013-07-26 23:24:00,
2013-07-26 18:34:00,74.1,-32.7,29.97,East,86,0.0,4.0,1,0.00,,,0.65,Wunderground v.1.15,2013-07-26 23:34:00,
2013-07-26 18:44:00,74.6,-32.4,29.97,ESE,105,0.0,4.0,1,0.00,,,0.65,Wunderground v.1.15,2013-07-26 23:44:00,
2013-07-26 18:55:00,74.2,-32.7,29.97,East,97,0.0,4.0,1,0.00,,,0.65,Wunderground v.1.15,2013-07-26 23:55:00,
2013-07-26 19:04:00,73.7,-33.0,29.96,West,277,0.0,4.0,1,0.00,,,0.65,Wunderground v.1.15,2013-07-27 00:04:00,
2013-07-26 19:09:00,73.3,-33.2,29.96,East,94,0.0,4.0,1,0.00,,,0.65,Wunderground v.1.15,2013-07-27 00:09:00,
2013-07-26 19:19:00,72.6,-33.6,29.96,East,94,0.0,4.0,1,0.00,,,0.65,Wunderground v.1.15,2013-07-27 00:19:00,
2013-07-26 19:29:00,72.1,-33.9,29.96,ESE,108,0.0,4.0,1,0.00,,,0.65,Wunderground v.1.15,2013-07-27 00:29:00,
2013-07-26 19:35:00,71.8,-34.1,29.96,SW,226,0.0,4.0,1,0.00,,,0.65,Wunderground v.1.15,2013-07-27 00:35:00,
2013-07-26 19:44:00,71.6,-34.2,29.95,ESE,117,0.0,4.0,1,0.00,,,0.65,Wunderground v.1.15,2013-07-27 00:44:00,
2013-07-26 19:54:00,71.2,-34.5,29.95,SE,146,0.0,4.0,1,0.00,,,0.65,Wunderground v.1.15,2013-07-27 00:54:00,
2013-07-26 20:04:00,70.9,-34.7,29.95,SW,224,0.0,4.0,1,0.00,,,0.65,Wunderground v.1.15,2013-07-27 01:04:00,
2013-07-26 20:10:00,70.7,-34.8,29.95,SE,127,0.0,4.0,1,0.00,,,0.65,Wunderground v.1.15,2013-07-27 01:10:00,
2013-07-26 20:19:00,70.3,-35.0,29.95,ESE,102,0.0,4.0,1,0.00,,,0.65,Wunderground v.1.15,2013-07-27 01:19:00,
2013-07-26 20:29:00,69.7,-35.4,29.95,East,101,0.0,4.0,1,0.00,,,0.65,Wunderground v.1.15,2013-07-27 01:29:00,
2013-07-26 20:39:00,69.1,-35.8,29.95,ESE,102,0.0,4.0,1,0.00,,,0.65,Wunderground v.1.15,2013-07-27 01:39:00,
2013-07-26 20:50:00,68.9,-35.9,29.95,East,101,0.0,4.0,1,0.00,,,0.65,Wunderground v.1.15,2013-07-27 01:50:00,
2013-07-26 20:59:00,68.4,-36.2,29.95,East,101,0.0,4.0,1,0.00,,,0.65,Wunderground v.1.15,2013-07-27 01:59:00,
2013-07-26 21:09:00,68.3,-36.2,29.95,ESE,111,0.0,4.0,1,0.00,,,0.65,Wunderground v.1.15,2013-07-27 02:09:00,
2013-07-26 21:19:00,68.2,-36.3,29.95,ESE,112,0.0,4.0,1,0.00,,,0.65,Wunderground v.1.15,2013-07-27 02:19:00,
2013-07-26 21:30:00,67.9,-36.5,29.95,ESE,111,0.0,4.0,1,0.00,,,0.65,Wunderground v.1.15,2013-07-27 02:30:00,
2013-07-26 21:39:00,67.9,-36.5,29.95,SE,136,0.0,4.0,1,0.00,,,0.65,Wunderground v.1.15,2013-07-27 02:39:00,
2013-07-26 21:49:00,67.7,-36.6,29.96,ESE,106,0.0,4.0,1,0.00,,,0.65,Wunderground v.1.15,2013-07-27 02:49:00,
2013-07-26 21:59:00,67.5,-36.7,29.95,ESE,106,0.0,4.0,1,0.00,,,0.65,Wunderground v.1.15,2013-07-27 02:59:00,
2013-07-26 22:09:00,67.3,-36.9,29.95,ESE,106,0.0,4.0,1,0.00,,,0.65,Wunderground v.1.15,2013-07-27 03:09:00,
2013-07-26 22:19:00,66.9,-37.1,29.95,ESE,106,0.0,4.0,1,0.00,,,0.65,Wunderground v.1.15,2013-07-27 03:19:00,
2013-07-26 22:29:00,67.2,-36.9,29.96,SSW,212,0.0,4.0,1,0.00,,,0.65,Wunderground v.1.15,2013-07-27 03:29:00,
2013-07-26 22:40:00,66.9,-37.1,29.96,SSW,213,0.0,4.0,1,0.00,,,0.65,Wunderground v.1.15,2013-07-27 03:40:00,
2013-07-26 22:45:00,66.5,-37.3,29.96,SW,214,0.0,4.0,1,0.00,,,0.65,Wunderground v.1.15,2013-07-27 03:45:00,
2013-07-26 22:50:00,66.3,-37.5,29.97,SSW,213,0.0,4.0,1,0.00,,,0.65,Wunderground v.1.15,2013-07-27 03:50:00,
2013-07-26 22:59:00,66.7,-37.2,29.97,SSW,213,0.0,4.0,1,0.00,,,0.65,Wunderground v.1.15,2013-07-27 03:59:00,
2013-07-26 23:04:00,66.6,-37.3,29.97,SSW,194,0.0,4.0,1,0.00,,,0.65,Wunderground v.1.15,2013-07-27 04:04:00,
2013-07-26 23:14:00,66.6,-37.3,29.98,SSW,194,0.0,4.0,1,0.00,,,0.65,Wunderground v.1.15,2013-07-27 04:14:00,
2013-07-26 23:19:00,66.6,-37.3,29.97,SSW,194,0.0,4.0,1,0.00,,,0.65,Wunderground v.1.15,2013-07-27 04:19:00,
2013-07-26 23:24:00,66.7,-37.2,29.97,SSW,194,0.0,4.0,1,0.00,,,0.65,Wunderground v.1.15,2013-07-27 04:24:00,
2013-07-26 23:30:00,66.6,-37.3,29.97,SSW,194,0.0,4.0,1,0.00,,,0.65,Wunderground v.1.15,2013-07-27 04:30:00,
2013-07-26 23:39:00,66.2,-37.5,29.97,SSW,194,0.0,4.0,1,0.00,,,0.65,Wunderground v.1.15,2013-07-27 04:39:00,
2013-07-26 23:49:00,66.1,-37.6,29.98,SSE,155,0.0,4.0,1,0.00,,,0.65,Wunderground v.1.15,2013-07-27 04:49:00,
2013-07-26 23:59:00,66.1,-37.6,29.98,SSE,153,0.0,4.0,1,0.00,,,0.65,Wunderground v.1.15,2013-07-27 04:59:00,